Weather History for KPOV - August, 2013

Change the Weather History Date:

Thursday, August 8, 2013

  Actual Average (KCAK) Record (KCAK)
Temperature  
Mean Temperature 76 °F 71 °F  
Max Temperature 82 °F 81 °F 98 °F (1931)
Min Temperature 69 °F 62 °F 48 °F (1922)
Degree Days  
Heating Degree Days 0 0  
Month to date heating degree days 0  
Since 1 June heating degree days 55  
Since 1 July heating degree days 6  
Cooling Degree Days 10 7  
Month to date cooling degree days 56  
Year to date cooling degree days 455  
Since 1 June cooling degree days 413  
Growing Degree Days 26 (Base 50)    
Moisture  
Dew Point 71 °F    
Average Humidity 95    
Maximum Humidity 100    
Minimum Humidity 71    
Precipitation  
Precipitation 0.70 in 0.12 in - ()
Month to date precipitation 0.97  
Year to date precipitation 24.61  
Snow  
Snow 0.00 in 0.00 in - ()
Month to date snowfall 0.0  
Since 1 June snowfall 0.0  
Since 1 July snowfall 0.0  
Snow Depth -    
Sea Level Pressure  
Sea Level Pressure 29.97 in    
Wind  
Wind Speed 1 mph (SE)    
Max Wind Speed 8 mph    
Max Gust Speed -    
Visibility 5 miles    
Events Fog , Rain    
T = Trace of Precipitation, MM = Missing Value Source: NWS Daily Summary

Daily Weather History Graph

Daily Weather History Graph

Search for Another Location

Airport or City:

Trip Planner

Search our weather history database for the weather conditions in past years. The results will help you decide how hot, cold, wet, or windy it might be!

Date:

Astronomy

Aug. 08, 2013 Rise Set
Actual Time 6:27 AM EDT 8:32 PM EDT
Civil Twilight 5:57 AM EDT 9:03 PM EDT
Nautical Twilight 5:20 AM EDT 9:40 PM EDT
Astronomical Twilight 4:39 AM EDT 10:20 PM EDT
Moon 8:14 AM EDT (8/8) 9:08 PM EDT (8/8)
Length of Visible Light 15h 05m
Length of Day
14h 05m
Waxing Crescent, 3% of the Moon is Illuminated
Aug 8
Waxing Crescent
Aug 14
First Quarter
Aug 20
Full
Aug 28
Last Quarter
Sep 5
New

Hourly Weather History & Observations

Time (EDT) Temp. Heat Index Dew Point Humidity Pressure Visibility Wind Dir Wind Speed Gust Speed Precip Events Conditions
12:13 AM 70.0 °F - 70.2 °F 100% 29.97 in 10.0 mi Calm Calm - N/A Rain Light Rain
12:33 AM 69.8 °F - 70.0 °F 100% 29.96 in 10.0 mi Calm Calm - N/A   Overcast
12:53 AM 69.8 °F - 70.0 °F 100% 29.97 in 10.0 mi Calm Calm - N/A   Overcast
1:13 AM 69.3 °F - 69.4 °F 100% 29.96 in 10.0 mi Calm Calm - N/A   Overcast
1:34 AM 69.1 °F - 69.3 °F 100% 29.96 in 7.0 mi Calm Calm - N/A   Overcast
1:53 AM 69.1 °F - 69.3 °F 100% 29.96 in 7.0 mi Calm Calm - N/A   Overcast
2:13 AM 69.1 °F - 69.3 °F 100% 29.96 in 7.0 mi Calm Calm - N/A   Overcast
2:33 AM 69.3 °F - 69.4 °F 100% 29.97 in 7.0 mi Calm Calm - N/A   Overcast
2:53 AM 69.4 °F - 69.8 °F 100% 29.96 in 7.0 mi Calm Calm - N/A   Overcast
3:14 AM 69.8 °F - 69.8 °F 100% 29.96 in 5.0 mi Calm Calm - N/A   Overcast
3:33 AM 69.8 °F - 70.0 °F 100% 29.95 in 5.0 mi Calm Calm - N/A   Overcast
3:54 AM 70.3 °F - 70.3 °F 100% 29.96 in 5.0 mi Calm Calm - N/A   Overcast
4:13 AM 70.7 °F - 70.7 °F 100% 29.95 in 5.0 mi Calm Calm - N/A   Overcast
4:33 AM - - - N/A% 29.95 in 4.0 mi Calm Calm - N/A   Overcast
4:53 AM 70.3 °F - 70.5 °F 100% 29.96 in 4.0 mi Calm Calm - N/A   Overcast
5:14 AM - - - N/A% 29.96 in 4.0 mi Calm Calm - N/A   Overcast
5:33 AM 70.7 °F - 70.9 °F 100% 29.96 in 4.0 mi Calm Calm - N/A   Overcast
5:53 AM 70.7 °F - 70.9 °F 100% 29.96 in 4.0 mi Calm Calm - N/A   Overcast
6:13 AM 70.7 °F - 70.7 °F 100% 29.96 in 3.0 mi Calm Calm - N/A   Overcast
6:33 AM 70.7 °F - 70.9 °F 100% 29.97 in 2.0 mi Calm Calm - N/A   Overcast
6:53 AM 70.9 °F - 71.1 °F 100% 29.97 in 1.8 mi Calm Calm - N/A   Overcast
7:13 AM 70.9 °F - 71.1 °F 100% 29.97 in 1.5 mi Calm Calm - N/A   Overcast
7:33 AM 71.1 °F - 71.2 °F 100% 29.97 in 1.0 mi Calm Calm - N/A   Overcast
7:53 AM 71.2 °F - 71.6 °F 100% 29.97 in 0.8 mi Calm Calm - N/A   Overcast
8:13 AM 71.6 °F - 71.6 °F 100% 29.98 in 1.5 mi Calm Calm - N/A   Overcast
8:33 AM 71.6 °F - 71.8 °F 100% 29.98 in 1.8 mi Calm Calm - N/A   Overcast
8:54 AM 72.5 °F - 72.5 °F 100% 29.98 in 2.5 mi Calm Calm - N/A   Overcast
9:14 AM 72.5 °F - 72.5 °F 100% 29.98 in 2.0 mi Calm Calm - N/A   Overcast
9:33 AM 72.9 °F - 73.0 °F 100% 29.98 in 3.0 mi Calm Calm - N/A   Overcast
9:53 AM 73.4 °F - 73.4 °F 100% 29.98 in 3.0 mi Calm Calm - N/A   Overcast
10:13 AM - - - N/A% 29.98 in 3.0 mi Calm Calm - N/A   Overcast
10:33 AM 76.1 °F - 74.1 °F 94% 29.98 in 4.0 mi Calm Calm - N/A   Mostly Cloudy
10:53 AM 77.9 °F - 73.6 °F 86% 29.98 in 5.0 mi SE 4.6 mph - N/A   Mostly Cloudy
11:13 AM 77.4 °F - 72.7 °F 85% 29.99 in 7.0 mi SSE 3.5 mph - N/A   Overcast
11:33 AM 77.2 °F - 72.5 °F 85% 30.00 in 5.0 mi South 5.8 mph - N/A   Mostly Cloudy
11:54 AM 77.9 °F - 72.7 °F 84% 30.00 in 7.0 mi Calm Calm - N/A   Overcast
12:13 PM 79.2 °F - 72.7 °F 80% 30.00 in 7.0 mi SSE 6.9 mph - N/A   Mostly Cloudy
12:33 PM 79.3 °F - 71.4 °F 77% 29.99 in 5.0 mi SSW 3.5 mph - N/A   Haze
12:53 PM 77.9 °F - 71.6 °F 81% 29.99 in 5.0 mi South 3.5 mph - N/A   Haze
1:14 PM 77.4 °F - 72.1 °F 84% 29.98 in 5.0 mi Calm Calm - N/A   Haze
1:33 PM 78.6 °F - 73.0 °F 83% 29.98 in 5.0 mi South 4.6 mph - N/A   Haze
1:53 PM 79.5 °F - 73.0 °F 80% 29.97 in 5.0 mi SSE 6.9 mph - N/A   Haze
2:13 PM 79.7 °F - 72.0 °F 77% 29.97 in 5.0 mi SSE 4.6 mph - N/A   Haze
2:33 PM 79.2 °F - 72.3 °F 79% 29.97 in 4.0 mi SSE 4.6 mph - N/A   Haze
2:54 PM 79.2 °F - 72.5 °F 80% 29.96 in 4.0 mi Calm Calm - N/A   Haze
3:13 PM 82.0 °F 86.7 °F 71.8 °F 71% 29.96 in 7.0 mi SW 3.5 mph - N/A   Mostly Cloudy
3:33 PM 79.9 °F - 70.9 °F 74% 29.95 in 5.0 mi Calm Calm - N/A   Haze
3:53 PM 80.6 °F 84.4 °F 71.2 °F 73% 29.95 in 7.0 mi Calm Calm - N/A   Mostly Cloudy
4:13 PM 79.2 °F - 72.0 °F 78% 29.94 in 7.0 mi NNE 3.5 mph - N/A   Overcast
4:33 PM 75.6 °F - 75.4 °F 99% 29.96 in 1.0 mi SSE 6.9 mph - 0.35 in Rain Heavy Rain
4:54 PM 71.4 °F - 71.6 °F 100% 29.95 in 4.0 mi East 4.6 mph - 0.66 in Rain Light Rain
5:13 PM 70.7 °F - 70.9 °F 100% 29.96 in 7.0 mi ESE 8.1 mph - N/A   Overcast
5:33 PM 71.1 °F - 71.2 °F 100% 29.97 in 7.0 mi ENE 4.6 mph - N/A   Overcast
5:53 PM 71.1 °F - 71.2 °F 100% 29.97 in 10.0 mi Calm Calm - N/A Rain Light Rain
6:13 PM 71.6 °F - 71.8 °F 100% 29.97 in 5.0 mi Calm Calm - 0.02 in Rain Light Rain
6:33 PM 71.6 °F - 71.8 °F 100% 29.96 in 5.0 mi ENE 4.6 mph - 0.04 in Rain Light Rain
6:54 PM 71.8 °F - 72.0 °F 100% 29.95 in 5.0 mi Calm Calm - 0.04 in   Mostly Cloudy
7:13 PM 72.0 °F - 72.1 °F 100% 29.95 in 5.0 mi Calm Calm - N/A   Mostly Cloudy
7:33 PM 72.0 °F - 72.1 °F 100% 29.95 in 7.0 mi Calm Calm - N/A   Overcast
7:53 PM 71.8 °F - 72.0 °F 100% 29.93 in 3.0 mi Calm Calm - N/A   Overcast
8:13 PM 71.4 °F - 71.6 °F 100% 29.95 in 4.0 mi Calm Calm - N/A   Overcast
8:34 PM 71.1 °F - 71.2 °F 100% 29.96 in 3.0 mi Calm Calm - N/A   Overcast
8:53 PM 70.7 °F - 70.9 °F 100% 29.96 in 3.0 mi Calm Calm - N/A   Mostly Cloudy
9:13 PM 70.7 °F - 70.7 °F 100% 29.97 in 3.0 mi Calm Calm - N/A   Mostly Cloudy
9:33 PM 70.3 °F - 70.5 °F 100% 29.97 in 3.0 mi Calm Calm - N/A   Overcast
9:54 PM - - - N/A% 29.98 in 0.5 mi East 3.5 mph - N/A Fog Fog
10:13 PM 70.7 °F - 70.7 °F 100% 29.98 in 2.5 mi ESE 4.6 mph - N/A   Overcast
10:33 PM 70.0 °F - 70.2 °F 100% 29.97 in 5.0 mi East 3.5 mph - N/A   Overcast
10:53 PM 69.8 °F - 70.0 °F 100% 29.98 in 5.0 mi Calm Calm - N/A   Overcast
11:13 PM 69.8 °F - 69.8 °F 100% 29.97 in 7.0 mi Calm Calm - N/A   Overcast
11:33 PM 69.8 °F - 69.8 °F 100% 29.96 in 7.0 mi Calm Calm - N/A   Overcast
11:54 PM 69.8 °F - 69.8 °F 100% 29.96 in 5.0 mi Calm Calm - N/A   Overcast